Santa Ynez, CA

9:38 AM PDT on September 27, 2016 (GMT -0700)
Santa Ynez

Weather History for KIZA - February, 2014

Change the Weather History Date:

Thursday, February 13, 2014

  Actual Average (KSBA) Record (KSBA)
Temperature  
Mean Temperature 58 °F 54 °F  
Max Temperature 78 °F 64 °F 84 °F (1943)
Min Temperature 39 °F 44 °F 33 °F (1942)
Degree Days  
Heating Degree Days 6 11  
Month to date heating degree days 155  
Since 1 July heating degree days 1439  
Cooling Degree Days 0 0  
Month to date cooling degree days 0  
Year to date cooling degree days 0  
Growing Degree Days 8 (Base 50)    
Moisture  
Dew Point 45 °F    
Average Humidity 76    
Maximum Humidity 100    
Minimum Humidity 25    
Precipitation  
Precipitation 0.00 in 0.13 in 1.79 in (1954)
Month to date precipitation 1.75  
Year to date precipitation 5.25  
Sea Level Pressure  
Sea Level Pressure 30.09 in    
Wind  
Wind Speed 3 mph (West)    
Max Wind Speed 18 mph    
Max Gust Speed -    
Visibility 7 miles    
Events Fog    
T = Trace of Precipitation, MM = Missing Value Source: NWS Daily Summary

Daily Weather History Graph

Daily Weather History Graph

Search for Another Location

Airport or City:

Trip Planner

Search our weather history database for the weather conditions in past years. The results will help you decide how hot, cold, wet, or windy it might be!

Date:

Astronomy

Feb. 13, 2014 Rise Set
Actual Time 6:47 AM PST 5:41 PM PST
Civil Twilight 6:21 AM PST 6:07 PM PST
Nautical Twilight 5:52 AM PST 6:37 PM PST
Astronomical Twilight 5:22 AM PST 7:06 PM PST
Moon 4:54 PM PST (2/13) 5:43 AM PST (2/13)
Length of Visible Light 11h 45m
Length of Day
10h 54m
Waxing Gibbous, 99% of the Moon is Illuminated
Feb 13
Waxing Gibbous
Feb 14
Full
Feb 22
Last Quarter
Mar 1
New
Mar 8
First Quarter

Hourly Weather History & Observations

Time (PST) Temp. Windchill Dew Point Humidity Pressure Visibility Wind Dir Wind Speed Gust Speed Precip Events Conditions
12:15 AM 46.4 °F - 46.4 °F 100% 30.14 in 0.2 mi Calm Calm - N/A Fog Fog
12:35 AM 48.2 °F - 46.4 °F 93% 30.13 in 0.2 mi Calm Calm - N/A Fog Fog
12:55 AM 48.2 °F - 46.4 °F 93% 30.13 in 0.2 mi Calm Calm - N/A Fog Fog
1:15 AM 46.4 °F - 46.4 °F 100% 30.12 in 0.2 mi Calm Calm - N/A Fog Fog
1:35 AM 46.4 °F - 46.4 °F 100% 30.12 in 0.2 mi Calm Calm - N/A Fog Fog
1:55 AM 46.4 °F - 44.6 °F 93% 30.10 in 0.2 mi Calm Calm - N/A Fog Fog
2:15 AM 44.6 °F 42.2 °F 44.6 °F 100% 30.10 in 0.5 mi North 4.6 mph - N/A Fog Fog
2:35 AM 44.6 °F - 44.6 °F 100% 30.11 in 0.2 mi Calm Calm - N/A Fog Fog
2:55 AM 44.6 °F - 44.6 °F 100% 30.11 in 0.2 mi Calm Calm - N/A Fog Fog
3:15 AM 44.6 °F - 44.6 °F 100% 30.10 in 0.2 mi Calm Calm - N/A Fog Fog
3:35 AM 42.8 °F 41.1 °F 42.8 °F 100% 30.10 in 0.2 mi East 3.5 mph - N/A Fog Fog
3:55 AM 42.8 °F 40.1 °F 41.0 °F 93% 30.10 in 0.8 mi NNE 4.6 mph - N/A   Mostly Cloudy
4:15 AM 42.8 °F - 41.0 °F 93% 30.10 in 0.8 mi Calm Calm - N/A   Overcast
4:35 AM 41.0 °F 39.0 °F 41.0 °F 100% 30.10 in 1.8 mi East 3.5 mph - N/A   Mostly Cloudy
4:55 AM 42.8 °F - 41.0 °F 93% 30.11 in 5.0 mi Calm Calm - N/A   Scattered Clouds
5:15 AM 41.0 °F - 39.2 °F 93% 30.11 in 7.0 mi Calm Calm - N/A   Clear
5:35 AM 41.0 °F - 41.0 °F 100% 30.11 in 10.0 mi Calm Calm - N/A   Clear
5:55 AM 41.0 °F - 41.0 °F 100% 30.12 in 10.0 mi Calm Calm - N/A   Clear
6:15 AM 39.2 °F - 37.4 °F 93% 30.12 in 1.5 mi Calm Calm - N/A   Mist
6:35 AM 41.0 °F 39.0 °F 39.2 °F 93% 30.11 in 10.0 mi East 3.5 mph - N/A   Clear
6:55 AM 41.0 °F 39.0 °F 39.2 °F 93% 30.12 in 10.0 mi NE 3.5 mph - N/A   Clear
7:15 AM 41.0 °F 39.0 °F 41.0 °F 100% 30.12 in 10.0 mi NE 3.5 mph - N/A   Clear
7:35 AM 41.0 °F - 41.0 °F 100% 30.11 in 10.0 mi Calm Calm - N/A   Clear
7:55 AM 42.8 °F - 42.8 °F 100% 30.12 in 10.0 mi Calm Calm - N/A   Clear
8:15 AM 44.6 °F - 44.6 °F 100% 30.12 in 10.0 mi Calm Calm - N/A   Clear
8:35 AM 44.6 °F - 44.6 °F 100% 30.12 in 10.0 mi Calm Calm - N/A   Clear
8:55 AM 46.4 °F - 46.4 °F 100% 30.12 in 10.0 mi Calm Calm - N/A   Clear
9:15 AM 50.0 °F - 46.4 °F 87% 30.13 in 10.0 mi SW 3.5 mph - N/A   Clear
9:35 AM 50.0 °F - 46.4 °F 87% 30.13 in 10.0 mi SW 3.5 mph - N/A   Clear
9:55 AM 53.6 °F - 48.2 °F 82% 30.12 in 10.0 mi Calm Calm - N/A   Clear
10:15 AM 59.0 °F - 44.6 °F 59% 30.12 in 10.0 mi Calm Calm - N/A   Clear
10:35 AM 62.6 °F - 44.6 °F 52% 30.12 in 10.0 mi SW 3.5 mph - N/A   Clear
10:55 AM 64.4 °F - 42.8 °F 45% 30.11 in 10.0 mi Calm Calm - N/A   Clear
11:35 AM 69.8 °F - 39.2 °F 33% 30.09 in 10.0 mi Calm Calm - N/A   Clear
11:55 AM 71.6 °F - 37.4 °F 29% 30.07 in 10.0 mi NW 4.6 mph - N/A   Clear
12:15 PM 73.4 °F - 35.6 °F 25% 30.07 in 10.0 mi West 4.6 mph - N/A   Clear
12:35 PM 75.2 °F - 39.2 °F 27% 30.06 in 10.0 mi West 8.1 mph - N/A   Clear
12:55 PM 75.2 °F - 42.8 °F 31% 30.05 in 10.0 mi West 8.1 mph - N/A   Clear
1:15 PM 77.0 °F - 42.8 °F 29% 30.04 in 10.0 mi West 9.2 mph - N/A   Clear
1:35 PM 78.8 °F - 44.6 °F 30% 30.03 in 10.0 mi WSW 10.4 mph - N/A   Clear
1:55 PM 78.8 °F - 44.6 °F 30% 30.04 in 10.0 mi West 13.8 mph - N/A   Clear
2:15 PM 77.0 °F - 44.6 °F 32% 30.04 in 10.0 mi West 18.4 mph - N/A   Clear
2:35 PM 73.4 °F - 44.6 °F 36% 30.03 in 10.0 mi West 16.1 mph - N/A   Clear
2:55 PM 71.6 °F - 46.4 °F 41% 30.03 in 10.0 mi West 12.7 mph - N/A   Clear
3:15 PM 71.6 °F - 46.4 °F 41% 30.03 in 10.0 mi West 13.8 mph - N/A   Clear
3:35 PM 69.8 °F - 48.2 °F 46% 30.03 in 10.0 mi WSW 10.4 mph - N/A   Clear
3:55 PM 69.8 °F - 48.2 °F 46% 30.03 in 10.0 mi WSW 11.5 mph - N/A   Clear
4:15 PM 68.0 °F - 46.4 °F 46% 30.03 in 10.0 mi West 9.2 mph - N/A   Clear
4:35 PM 68.0 °F - 46.4 °F 46% 30.03 in 10.0 mi West 10.4 mph - N/A   Clear
4:55 PM 68.0 °F - 48.2 °F 49% 30.03 in 10.0 mi West 9.2 mph - N/A   Clear
5:15 PM 64.4 °F - 48.2 °F 56% 30.03 in 10.0 mi West 9.2 mph - N/A   Clear
5:35 PM 62.6 °F - 48.2 °F 59% 30.05 in 10.0 mi WSW 8.1 mph - N/A   Clear
5:55 PM 62.6 °F - 46.4 °F 55% 30.05 in 10.0 mi West 5.8 mph - N/A   Clear
6:15 PM 59.0 °F - 48.2 °F 67% 30.06 in 10.0 mi West 4.6 mph - N/A   Clear
6:35 PM 57.2 °F - 48.2 °F 72% 30.06 in 10.0 mi WSW 3.5 mph - N/A   Clear
6:55 PM 55.4 °F - 48.2 °F 77% 30.06 in 10.0 mi WSW 4.6 mph - N/A   Clear
7:15 PM 55.4 °F - 48.2 °F 77% 30.07 in 10.0 mi WSW 3.5 mph - N/A   Clear
7:35 PM 53.6 °F - 48.2 °F 82% 30.07 in 10.0 mi West 4.6 mph - N/A   Clear
7:55 PM 53.6 °F - 48.2 °F 82% 30.07 in 10.0 mi West 3.5 mph - N/A   Clear
8:15 PM 51.8 °F - 46.4 °F 82% 30.08 in 10.0 mi SW 5.8 mph - N/A   Clear
8:35 PM 50.0 °F - 46.4 °F 87% 30.08 in 10.0 mi WSW 4.6 mph - N/A   Clear
8:55 PM 50.0 °F - 46.4 °F 87% 30.08 in 10.0 mi WSW 3.5 mph - N/A   Clear
9:15 PM 50.0 °F - 46.4 °F 87% 30.09 in 10.0 mi SW 3.5 mph - N/A   Clear
9:35 PM 50.0 °F - 46.4 °F 87% 30.10 in 7.0 mi Calm Calm - N/A   Clear
9:55 PM 48.2 °F - 46.4 °F 93% 30.10 in 7.0 mi Calm Calm - N/A   Clear
10:15 PM 50.0 °F - 46.4 °F 87% 30.10 in 0.2 mi West 3.5 mph - N/A Fog Fog
10:35 PM 50.0 °F - 48.2 °F 94% 30.10 in 0.2 mi Calm Calm - N/A Fog Fog
10:55 PM 48.2 °F - 46.4 °F 93% 30.10 in 0.2 mi Calm Calm - N/A Fog Fog
11:15 PM 48.2 °F - 46.4 °F 93% 30.10 in 0.2 mi Calm Calm - N/A Fog Fog
11:35 PM 48.2 °F - 46.4 °F 93% 30.11 in 0.2 mi Calm Calm - N/A Fog Fog
11:55 PM 46.4 °F - 46.4 °F 100% 30.11 in 0.2 mi Calm Calm - N/A Fog Fog